CZ-6A DEB, 54947

Orbit data source: Space-Track

CZ-6A DEB, 54947 is space debris in SSO originally from a launch on Fri, 11 Nov 2022 UTC launched from the Taiyaun Space Center, China (TSC). Debris objects in space refer to the collection of defunct objects orbiting the Earth. Examples of debris include non-operational satellites, rocket bodies, and fragments generated from explosions, collisions, or faulty payload assembly.

Loading next visibility...
Identifier
54947, 2022-151SL
Orbit
SSO
Country
Flag of CNCN / PRC
Related business
Manufacturer
SAST
Mission
Spacecraft
Bus & Motor
Unknown
Mass
Unknown
Launch date (UTC)
2022-11-11 (4 years ago)
Launch vehicle
Unknown
Launch site
Taiyaun Space Center, China (TSC)
Object type
Payload
Rocket body
Debris
Shape & HBR
Unknown shape, 0.1 m
Radar Cross Section
Small (<0.1 m²)

Expand to show TLE details & history
Last TLE update: 2 days ago

TLE from 2 days ago
0 CZ-6A DEB
1 54947U 22151SL  26171.45330786  .00117252  00000-0  36293-2 0  9996
2 54947  99.1046 356.7444 0029417 194.6787 165.3598 15.32570352192910
Epoch: 2026-06-20T10:52Z
TLE epoch observation values (Epoch: 2026-06-20T10:52:45.799Z)
Latitude
-0.00005°
Longitude
-75.11413°
Altitude
490.694 km
Speed
7.609 km/s
True Right ascension
23h 46m 58s
True Declination
0° 00' 00"
Sunlit
Object was in daylight at epoch
Visualization orbit readout
Latitude
Unknown
Longitude
Unknown
Altitude
Unknown
Speed
Unknown
Apparent Right ascension
Unknown
Apparent Declination
Unknown
Sunlit
N/A
Visualization observer readout
Local Sidereal Time
23:07:19
Azimuth
Unknown
Elevation
Unknown
Doppler factor
Unknown
Orbital elements
Apogee altitude
485.308 km
Perigee altitude
445.046 km
Semi-major axis
6,843.314 km
Eccentricity
0.00294
Inclination
99.1046°
RAAN
356.7444°
Arg. of periapsis
194.6787°
True anomaly
165.4447°
Mean anomaly
165.3598°
Eccentric anomaly
165.40228°
Mean motion
3.83392 °/min
Orbital period
93.9 mins
BSTAR
0.0036293
Loading maneuver chart data...
Computing Atmospheric mass density...

Documentation

Showing up to 5 results
|